Regional Weather Roundup
Issued by NWS Grand Forks, ND

Home | Current Version | Previous Version | Text Only | Print | Product List | Glossary Off
Versions: 1 2 3 4 5 6 7 8 9 10 11 12 13 14 15 16 17 18 19 20 21 22 23 24 25 26 27 28 29 30 31 32 33 34 35 36 37 38 39 40 41 42 43 44 45 46 47 48 49 50

000
ASUS43 KFGF 200831
RWRFGF
PRAIRIE TO PINES  WEATHER ROUNDUP
NATIONAL WEATHER SERVICE EASTERN NORTH DAKOTA/GRAND FORKS ND
300 AM CDT WED AUG 20 2014

 **SATELLITE DATA USED TO AUGMENT SKY COVER AT AUTOMATED STATIONS**
 *****  WEATHER ACROSS EASTERN NORTH DAKOTA  *****

CITY           SKY/WX    TMP DP  RH WIND       PRES   REMARKS
GRAND FORKS    CLEAR     63  61  93 S3        29.76S
GRAND FRKS AFB CLEAR     64  64  99 SE5       29.77S
GRAND FRKS NWS   N/A     52 N/A N/A SE6         N/A
DEVILS LAKE    CLEAR     68  63  83 SE7       29.73S
FARGO          CLEAR     67  62  84 SE6       29.76F
WAHPETON ARPT  MOSUNNY   63  59  88 SE5       29.79R
$$

 ***** WEATHER ACROSS CENTRAL AND WESTERN NORTH DAKOTA  *****

CITY           SKY/WX    TMP DP  RH WIND       PRES   REMARKS
BISMARCK       CLEAR     68  61  78 E7        29.71F
MINOT          PTCLDY    66  60  81 SE7       29.68F
JAMESTOWN      MOCLDY    66  63  90 SE7       29.75F
MINOT AFB      PTCLDY    64  63  99 SE7       29.67F
GARRISON         N/A     68  62  81 SE8       29.69F
WILLISTON      PTCLDY    70  60  70 CALM      29.63F
DICKINSON      PTCLDY    63  57  81 S8        29.67F
HETTINGER      CLEAR     66  59  78 SE6       29.71F
$$

 *****  OTHER AIRPORT OBSERVATIONS IN OUR AREA  *****

CITY           SKY/WX    TMP DP  RH WIND       PRES   REMARKS
WALHALLA         N/A     68  68 100 S8          N/A
GRAFTON AIRPOR FAIR      61  61 100 S3        29.76S
VALLEY CITY AR FAIR      66  66 100 S8        29.77S
CANDO          FAIR      64  63  94 SE6       29.74F
CAVALIER APRT  FAIR      64  63  94 S5        29.75S
GWINNER        SUNNY     64  64 100 SE3       29.78S
SHEYENNE NWR     N/A     62  61  96 E3        29.95
ROLLA          FOG       59  59 100 S5        29.76S VSB 1/4
 ***** THE ABOVE OBSERVATIONS ARE NON NWS ARE NOT QUALITY
       CONTROLLED AND MAY MIS-REPORT RAIN FOR SNOW...
$$

  *****  WEATHER ACROSS NORTHERN MINNESOTA  *****

CITY           SKY/WX    TMP DP  RH WIND       PRES   REMARKS
FLAG ISLAND    CLEAR     68  63  83 SE3       29.80S
WARROAD        PTCLDY    61  57  88 SE5       29.82S
ROSEAU         CLEAR     63  57  82 S3        29.81R
HALLOCK        PTCLDY    64  61  88 SE7       29.76S
THF RVR FALLS  CLEAR     61  59  94 E6        29.79F
BAUDETTE       CLEAR     60  58  92 E5        29.82S
WASKISH        CLEAR     55  55 100 CALM      29.83R
CROOKSTON      CLEAR     63  61  94 SE7       29.78S
$$
  *****  WEATHER ACROSS CENTRAL AND WEST MINNESOTA  *****

CITY           SKY/WX    TMP DP  RH WIND       PRES   REMARKS
FOSSTON        CLEAR     59  55  88 SE3       29.81S
BEMIDJI        CLEAR     58  57  97 CALM      29.82F
PARK RAPIDS    CLEAR     61  60  97 E5        29.82F
ELBOW LAKE     FAIR      66  63  87 SE5       29.79S
WADENA         CLEAR     59  57  94 CALM      29.82S
DETROIT LAKES  CLEAR     64  63  94 SE6       29.82S
MOORHEAD       PTCLDY    66  66 100 SE5       29.78S
FERGUS FALLS   CLEAR     66  63  88 E5        29.79S
MORRIS MN      CLEAR     63  63 100 SE6       29.79S FOG
STAPLES        CLEAR     61  59  94 CALM      29.82S
$$
  *****  WEATHER ELSEWHERE ACROSS MINNESOTA  *****

CITY           SKY/WX    TMP DP  RH WIND       PRES   REMARKS
DULUTH         FOG       59  58  96 E6        29.84R VSB 1/4
INTRNTL FALLS  FOG       49  49 100 CALM      29.83S VSB 1/2
ELY            CLOUDY    61  59  94 CALM      29.85R
CLOQUET        CLOUDY    61  57  88 CALM      29.84R
WHEATON        PTCLDY    61  59  94 SE6       29.81R
BRAINERD       FOG       57  57 100 NE3       29.83S VSB 3/4
HIBBING        FOG       51  50  96 NW3       29.84R VSB 1/4
ALEXANDRIA     CLEAR     64  61  90 SE5       29.82F
SAINT CLOUD    CLEAR     62  59  90 CALM      29.81S
MINNEAPOLIS    PTCLDY    68  65  90 CALM      29.81R
$$

  *****  WEATHER ACROSS SOUTH DAKOTA  *****

CITY           SKY/WX    TMP DP  RH WIND       PRES   REMARKS
SIOUX FALLS    MOCLDY    68  63  84 CALM      29.79F
BROOKINGS      NOT AVBL
WATERTOWN      CLEAR     64  60  87 CALM      29.80S
HURON          CLOUDY    67  62  84 SE6       29.75R
SISSETON         N/A     62  62 100 S5        29.77S
ABERDEEN       CLEAR     63  61  93 SE6       29.75S
MITCHELL       CLOUDY    68  63  84 SE3       29.76S
PIERRE         CLOUDY    68  63  84 SE15G26   29.70F
MOBRIDGE       PTCLDY    67  63  87 SE9       29.70S
RAPID CITY     CLOUDY    70  56  61 SE10      29.74F
$$

  *****  SOME WEATHER IN NEARBY STATES *****

CITY           SKY/WX    TMP DP  RH WIND       PRES   REMARKS
GLASGOW MT     PTCLDY    68  50  52 SE6       29.58F
GREAT FALLS MT CLOUDY    62  52  69 E6        29.78R
CHEYENNE WY    CLOUDY    60  52  74 W6        29.98R
SCOTTSBLUFF NE CLOUDY    66  58  75 NE3       29.81F
OMAHA NE       MOCLDY    74  66  76 SE8       29.77F
DES MOINES IA  PTCLDY    72  66  81 SE6       29.82F
DAVENPORT IA   CLEAR     61  59  93 CALM      29.84S
CHICAGO IL     CLEAR     69  61  75 W6        29.79R
EAU CLAIRE WI  FOG       61  61 100 CALM      29.81R VSB 1/2
LA CROSSE WI   PTCLDY    67  63  87 S5        29.80R
$$

  *****  SOME NATIONAL WEATHER *****

CITY           SKY/WX    TMP DP  RH WIND       PRES   REMARKS
LA GUARDIA NY  PTCLDY    71  64  78 S3        29.94S
RALEIGH NC     MOCLDY    72  70  94 CALM      29.91R
ATLANTA GA     MOCLDY    73  71  93 W8        29.96S
NEW ORLEANS LA PTCLDY    79  75  87 CALM      29.98R
OKLAHOMA CITY  PTCLDY    75  67  76 SE12      29.87S
ALBUQUERQUE NM CLOUDY    69  51  52 SE5       30.04F
SALT LAKE CITY TSTM      66  61  84 E6        29.90R
LOS ANGELES CA CLOUDY    69  60  73 SW7       29.89R
BOISE ID       MOCLDY    72  43  35 SW3       29.79R
SEATTLE WA     MOCLDY    60  50  69 SW9       29.87R
$$

*** WEATHER ACROSS MANITOBA...SASKATCHEWAN AND ONTARIO ***
                ***ONTARIO***

CITY           SKY/WX    TMP DP  RH WIND       PRES   REMARKS
GERALDTON      CLEAR     55  55 100 NE5       29.84R
THUNDER BAY    CLOUDY    61  59  94 SW3       29.81R
SIOUX LOOKOUT  PTCLDY    52  52 100 S2        29.85S
TORONTO        MOCLDY    64  59  82 NE3       29.83S
BIG TROUT LK   CLEAR     64  55  72 S8        29.85S
PICKLE LAKE    NOT AVBL
DRYDEN         CLEAR     59  57  94 CALM      29.85F
KENORA         CLEAR     61  59  94 SE5       29.84S
$$
                *** MANITOBA***

CITY           SKY/WX    TMP DP  RH WIND       PRES   REMARKS
BRANDON        CLEAR     59  57  94 NE5       29.73S
DAUPHIN        CLEAR     59  57  94 W2        29.70R
ISLAND LAKE    PTCLDY    66  61  82 S5        29.78R
PILOT MOUND      N/A    N/A N/A N/A SE8         N/A
THE PAS        CLEAR     66  63  88 SE9       29.65R
THOMPSON       CLOUDY    64  64 100 E5        29.68R
WINNIPEG       CLEAR     64  61  88 S10       29.76F
LYNN LAKE      RAIN      55  55 100 MISG      29.71S FOG
CHURCHILL      CLOUDY    46  46 100 SE15      29.81S
GILLAM         MOCLDY    61  61 100 E5        29.71F
$$
                ***SASKATCHEWAN***

CITY           SKY/WX    TMP DP  RH WIND       PRES   REMARKS
ESTEVAN        PTCLDY    66  61  82 E8        29.63F
KINDERSLEY     TSTM      63  61  94 N10       29.65F
LLOYDMINSTER   CLOUDY    61  54  77 NW7       29.68S
PRINCE ALBERT  MOCLDY    63  61  94 N3        29.61F THUNDER
REGINA         MOCLDY    64  61  88 E8        29.62R
YORKTON        MOCLDY    66  61  82 SE10      29.66F HAZE
N. BATTLEFORD  PTCLDY    63  61  94 NW7       29.66S
LA RONGE       MOCLDY    61  59  94 CALM      29.66F
SASKATOON      MOCLDY    63  61  94 N12       29.62S THUNDER
SWIFT CURRENT  PTCLDY    63  57  82 NW16G23   29.65F
$$
NOTE: THESE ARE AUTOMATED STATIONS WITH LIMITED QUALITY CONTROL
      "FAIR" INDICATES FEW OR NO CLOUDS BELOW 12,000 FEET WITH NO
      SIGNIFICANT WEATHER AND/OR OBSTRUCTIONS TO VISIBILITY.
      SKY/WX - SKY CONDITION AND SIGNIFICANT WEATHER.
      TMP - AIR TEMPERATURE.    DP   - DEWPOINT TEMPERATURE.
      RH  - RELATIVE HUMIDITY.  PRES - PRESSURE.
      HX  - HEAT INDEX.         WCI  - WIND CHILL INDEX.
$



USA.gov is the U.S. government's official web portal to all federal, state and local government web resources and services.